Regional Weather Roundup
Issued by NWS Memphis, TN

Home | Current Version | Previous Version | Text Only | Print | Product List | Glossary On
Versions: 1 2 3 4 5 6 7 8 9 10 11 12 13 14 15 16 17 18 19 20 21 22 23 24 25 26 27 28 29 30 31 32 33 34 35 36 37 38 39 40 41 42 43 44 45 46 47 48 49 50
000
ASUS44 KMEG 261700
RWRMEG
MEMPHIS CWA HOURLY WEATHER ROUNDUP
NATIONAL WEATHER SERVICE MEMPHIS TN
1200 PM CDT TUE MAY 26 2015

...WEST TENNESSEE...

CITY           SKY/WX    TMP DP  RH WIND       PRES   REMARKS
MEMPHIS INTL   MOSUNNY   78  64  61 S9        30.06F
NWS MEMPHIS      N/A     77 N/A N/A MISG        N/A
JACKSON        PTSUNNY   76  64  66 SW10      30.08S HAZE
LEXINGTON      MOSUNNY   72  66  83 S8        30.08S
DYERSBURG      MOSUNNY   75  54  46 SW7       30.06F
PARIS          PTSUNNY   72  63  73 SW15      30.07R


...EASTERN ARKANSAS...

CITY           SKY/WX    TMP DP  RH WIND       PRES   REMARKS
JONESBORO      CLOUDY    70  62  76 SW16      30.04R
WEST MEMPHIS   MOSUNNY   75  66  73 SW8G17    30.04F
BATESVILLE     CLOUDY    72  63  73 SW9       30.03R
WALNUT RIDGE   PTSUNNY   72  61  68 SW15G21   30.02R
BLYTHEVILLE    PTSUNNY   74  65  73 SW13      30.05S
NW BLYTHEVILLE PTSUNNY   73  63  68 SW16G25   30.04S
SEARCY         CLOUDY    71  64  78 S8        30.05S
STUTTGART      CLOUDY    73  63  68 W10G18    30.06S
PINE BLUFF     PTSUNNY   74  63  68 SW15G21   30.06S
MONTICELLO     PTSUNNY   76  65  68 SW8       30.06R


...NORTH MISSISSIPPI...

CITY           SKY/WX    TMP DP  RH WIND       PRES   REMARKS
TUPELO         CLOUDY    74  64  71 VRB7      30.11R
TUNICA         MOSUNNY   73  64  73 S10       30.08R
GREENWOOD      MOSUNNY   76  64  66 S7        30.09R
STARKVILLE     FAIR      70  63  78 CALM      30.12S
GOLDEN TRIANGL CLOUDY    72  64  78 SW5       30.11S


...SOUTHEAST MISSOURI...

CITY           SKY/WX    TMP DP  RH WIND       PRES   REMARKS
WEST PLAINS    CLOUDY    67  59  75 SW13      30.02R
POPLAR BLUFF   CLOUDY    71  62  73 SW13G22   30.00R
CAPE GIRARDEAU PTSUNNY   72  63  73 SW17G23   30.00R


...NORTHWEST ALABAMA...

CITY           SKY/WX    TMP DP  RH WIND       PRES   REMARKS
MUSCLE SHOALS  CLOUDY    74  69  85 S14G21    30.11R


...MIDDLE TENNESSEE...

CITY           SKY/WX    TMP DP  RH WIND       PRES   REMARKS
NASHVILLE      LGT RAIN  75  69  81 S17       30.10R
CLARKSVILLE    CLOUDY    74  68  81 SW14      30.07R
COLUMBIA       MOSUNNY   75  72  88 S9        30.08S


...WESTERN KENTUCKY...

CITY           SKY/WX    TMP DP  RH WIND       PRES   REMARKS
PADUCAH        PTSUNNY   75  62  64 SW10G22   30.01S


...CENTRAL ARKANSAS...

CITY           SKY/WX    TMP DP  RH WIND       PRES   REMARKS
LITTLE ROCK    CLOUDY    71  62  73 SW8       30.05S


SKY/WX REPORTED AS FAIR MEANS FEW OR NO CLOUDS BELOW
12 THOUSAND FEET.



USA.gov is the U.S. government's official web portal to all federal, state and local government web resources and services.